Tracking 31027 objects as of 19-Jul-2025
HD Live streaming from Space Station
objects crossing your sky now

STARLINK-11310

Track STARLINK-11310 now!
10-day predictions


NORAD ID: 61212
Int'l Code: 2024-171N
Perigee: 366.1 km
Apogee: 367.6 km
Inclination: 53.2 °
Period: 91.7 minutes
Semi major axis: 6737 km
RCS: Unknown
Launch date: September 20, 2024
Source: United States (US)
Launch site: AIR FORCE WESTERN TEST RANGE (AFWTR)
Your satellite tracking list
STARLINK-1243
Track 1 satellite(s)




NASA's NSSDC Master Catalog

Two Line Element Set (TLE):
1 61212U 24171N   25199.56650471 -.00000531  00000-0  47627-6 0  9999
2 61212  53.1593 250.6474 0001079 113.1146 246.9986 15.69709156 48513
Source of the keplerian elements: AFSPC